Location: Waco, TX
(31.5480°N, 97.1670°W)
Time: 19:43:19
(UTC-06:00)

ISS - Pass Details

Date: 11 January 2018
Orbit: 402 x 407 km, 51.6° (Epoch: 18 January)

Event Time Altitude Azimuth Distance (km) Brightness Sun altitude
Rises 01:27:53 0° 260° (W) 2,306 - -75.0°
Reaches altitude 10° 01:30:28 10° 282° (WNW) 1,451 - -74.5°
Maximum altitude 01:32:40 17° 325° (NW) 1,118 - -74.1°
Drops below altitude 10° 01:34:52 10° 7° (N) 1,457 - -73.8°
Sets 01:37:29 0° 29° (NNE) 2,320 - -73.3°
